Lapse_Rate
5.6 5.6 5.6 5.6 5.7 5.8 5.9 6.3 6.1 5.9 5.7 6.0 6.0 5.9 5.9 6.0 6.2 6.3 6.3 6.2 6.3 6.2 6.1 6.1 6.1 5.9 5.8
5.7 5.6 5.5 5.6 5.7 5.8 6.2 6.2 6.2 6.2 6.1 6.2 6.2 6.1 6.1 6.2 6.3 6.4 6.4 6.4 6.4 6.5 6.6 6.5 6.5 6.4 6.3
5.8 5.8 5.7 5.8 5.8 6.1 6.3 6.4 6.3 6.3 6.2 6.2 6.1 6.0 6.1 6.2 6.3 6.3 6.4 6.7 6.8 6.9 6.9 6.9 6.9 6.8 6.7
5.8 5.8 5.8 5.9 6.3 6.4 6.5 6.4 6.4 6.4 6.3 6.1 6.0 5.8 6.0 6.1 6.3 6.3 6.5 6.7 6.9 7.0 6.9 6.9 6.8 6.8 6.7
6.0 5.9 6.1 6.2 6.4 6.6 6.5 6.5 6.6 6.6 6.4 6.3 6.0 6.2 6.3 6.4 6.4 6.5 6.7 6.9 6.9 6.9 6.7 6.6 6.6 6.6 6.4
6.0 6.1 6.3 6.3 6.5 6.6 6.7 6.7 6.7 6.5 6.2 6.6 6.2 6.4 6.5 6.5 6.6 6.7 6.8 6.8 6.8 6.7 6.6 6.5 6.5 6.4 6.3
6.1 6.3 6.3 6.5 6.6 6.7 6.8 6.8 6.8 6.6 6.3 6.5 6.4 6.5 6.5 6.6 6.7 6.8 6.8 6.7 6.6 6.6 6.5 6.5 6.4 6.3 6.4
6.3 6.4 6.4 6.5 6.6 6.8 6.9 6.9 6.7 6.5 6.4 6.3 6.4 6.5 6.5 6.7 6.8 6.8 6.8 6.7 6.6 6.5 6.5 6.5 6.4 6.4 6.5
6.3 6.3 6.5 6.6 6.8 6.9 6.9 6.8 6.5 6.2 6.2 6.3 6.2 6.1 6.3 6.6 6.5 6.4 6.4 6.3 6.3 6.3 6.3 6.3 6.2 6.3 6.5
6.4 6.4 6.5 6.6 6.7 6.7 6.7 6.5 6.3 6.1 6.3 6.2 5.8 6.0 6.5 6.5 6.2 6.1 6.1 6.0 6.0 6.2 6.3 6.2 6.2 6.4 6.7
6.4 6.4 6.4 6.5 6.6 6.6 6.6 6.4 6.1 6.1 6.2 6.0 5.7 6.0 6.4 6.4 6.1 5.9 5.8 5.5 5.6 5.7 5.6 5.9 6.1 6.2 6.6
6.3 6.3 6.4 6.4 6.4 6.4 6.4 6.3 6.1 6.1 6.0 5.8 5.7 6.0 6.3 6.3 6.3 6.3 6.0 5.9 5.9 5.6 5.7 6.1 6.1 6.2 6.6
6.2 6.2 6.2 6.2 6.3 6.4 6.3 6.3 6.1 6.1 5.9 5.7 5.7 5.9 6.1 6.1 6.1 6.2 6.0 6.0 5.8 5.5 5.8 6.2 6.2 6.2 6.6
6.1 6.1 6.1 6.2 6.2 6.3 6.4 6.4 6.3 6.1 6.0 5.9 5.9 5.8 5.9 5.8 5.9 5.8 5.7 5.9 5.6 5.5 5.9 6.2 6.3 6.4 6.7
6.0 6.0 6.0 6.1 6.1 6.2 6.3 6.4 6.3 6.0 5.8 5.9 6.1 6.0 5.9 5.9 5.7 5.5 5.7 5.6 5.4 5.5 5.6 6.0 6.3 6.5 6.8
5.9 5.9 5.9 6.0 6.0 6.0 6.1 6.2 6.2 6.0 5.8 5.7 5.8 5.6 5.7 5.8 5.5 5.4 5.3 5.1 5.1 5.2 5.3 5.8 6.5 6.4 6.9
5.8 5.9 5.9 5.9 5.9 6.0 6.0 6.0 6.0 5.9 5.8 5.7 5.7 5.7 5.9 5.9 5.7 5.6 5.4 5.2 5.3 5.2 5.0 5.1 6.0 6.5 6.8
Wind_Speed
1 1 2 1 2 2 1 2 1 2 2 2 3 4 5 5 6 7 8 10 11 12 12 12 12 12 14
2 2 2 3 3 2 2 3 2 2 3 3 3 3 5 6 8 10 10 10 11 12 13 12 14 14 14
3 2 2 2 2 2 3 2 1 3 4 4 5 7 5 7 8 9 10 10 11 11 11 12 13 12 13
3 3 2 2 2 1 1 1 2 3 5 4 4 5 8 9 10 8 8 9 10 10 11 12 13 15 15
3 2 2 2 2 1 0 2 2 2 3 4 5 7 7 5 5 6 8 9 10 11 12 13 14 13 14
2 2 3 2 2 1 0 1 2 1 3 4 3 2 2 4 6 10 12 12 11 9 8 11 13 14 15
3 2 2 3 3 2 2 2 2 1 4 2 2 3 3 6 10 11 10 8 4 6 10 11 12 14 16
3 3 2 5 3 2 2 2 3 2 1 2 2 4 7 5 4 4 3 7 4 11 10 13 16 17 18
5 3 2 5 6 3 2 2 1 1 1 2 2 4 3 2 2 3 3 6 11 10 17 17 16 17 16
2 2 3 5 4 1 2 2 1 2 1 3 2 3 3 1 4 6 8 9 9 17 17 14 13 12 10
2 2 3 3 3 3 3 1 1 3 2 2 2 3 2 4 4 7 9 9 15 16 12 12 10 11 9
2 2 2 3 2 1 3 4 6 7 9 6 3 3 5 6 6 2 7 13 13 11 11 11 12 15 16
3 2 2 3 3 1 4 7 8 9 10 8 7 6 6 7 8 8 8 4 15 11 9 10 11 12 9
2 2 2 2 3 2 3 3 5 6 5 6 6 4 5 8 8 11 9 6 5 7 11 12 14 14 15
3 3 4 4 4 3 3 4 6 7 6 5 7 9 12 10 8 9 10 9 9 9 8 9 9 13 15
5 5 4 4 4 4 4 5 6 7 8 6 5 5 3 8 20 9 7 8 8 8 8 9 10 9 14
5 5 5 4 5 5 5 6 7 7 7 6 4 3 6 9 6 18 9 9 9 9 9 9 10 11 15
Wind_Direction
89 69 77 105 89 84 50 58 55 43 337 343 319 301 291 295 303 301 300 298 294 293 299 299 299 294 300
123 118 77 72 72 87 76 79 51 356 336 323 308 310 306 302 297 290 287 288 294 294 296 302 303 303 301
126 113 112 117 130 95 57 27 22 26 2 332 300 287 285 302 300 289 286 290 293 295 296 296 297 296 293
94 105 104 73 90 165 176 16 314 339 325 315 297 279 281 286 291 283 285 287 290 294 296 296 298 297 294
109 130 136 161 197 88 31 318 295 323 310 286 289 289 280 266 265 277 281 287 295 296 295 293 294 295 295
124 145 136 139 146 117 291 295 266 119 327 301 311 303 261 247 283 291 288 287 283 283 302 305 298 293 294
130 125 144 168 143 168 221 243 264 340 309 285 329 304 268 291 307 293 272 248 207 312 304 298 294 293 290
88 128 130 159 176 176 186 253 265 261 278 276 354 298 316 307 307 331 215 178 302 318 308 305 301 294 290
96 123 148 208 188 166 229 262 275 172 43 307 340 311 304 278 244 37 331 292 300 311 315 307 300 295 291
76 69 46 118 112 205 156 222 272 267 145 336 316 345 304 234 261 294 308 303 296 310 309 305 300 295 294
130 136 124 133 134 126 127 134 254 267 300 350 285 306 286 306 291 293 302 296 307 307 302 300 288 280 286
163 164 170 175 167 191 307 286 259 260 283 286 266 257 290 291 282 259 290 291 286 285 293 287 284 288 276
183 181 186 180 204 298 276 272 279 275 270 256 259 276 269 265 280 290 309 296 288 276 272 284 287 283 287
192 184 189 224 247 256 264 284 289 283 272 268 266 245 264 258 262 275 275 272 282 289 290 288 283 275 275
190 204 228 248 261 252 269 281 279 291 292 296 293 271 256 253 272 258 269 270 270 281 289 291 285 283 278
223 228 232 246 268 273 272 272 287 291 294 301 307 317 290 260 224 259 272 271 285 285 281 286 290 288 282
228 235 242 245 266 268 272 273 276 279 281 287 285 274 291 291 287 231 255 278 289 287 284 279 279 285 292